This demonstration page uses our WeatherBlox Daily Observations layout. Learn more.

Left ArrowRight Arrow

41.12389, -100.76542

Hourly Observations for March 23, 2021

Temp ( °F °C ) Dew Point ( °F °C ) Humidity (%) Winds ( mph kmh ) Pressure ( in mb ) Visibility ( mi km ) Precip ( " mm )
12:53 am 00:53 Cloudy with Light Rain 38 3.3 34 1.1 86 86 N 8 13 29.79 1009 10 16 0.00 0.00
1:48 am 01:48 Cloudy 37 3 34 1 87 87 NNW 9 15 29.84 1010 10 16 0.00 0.00
1:53 am 01:53 Cloudy with Light Rain 38 3.3 34 1.1 86 86 N 12 19 29.78 1009 10 16 0.00 0.00
2:14 am 02:14 Cloudy with Light Rain 38 3.3 34 1.1 86 86 N 12 19 29.83 1010 10 16 0.00 0.00
2:53 am 02:53 Cloudy with Light Rain 38 3.3 34 1.1 86 86 N 13 20 29.75 1008 10 16 0.01 0.25
3:30 am 03:30 Cloudy with Light Rain 38 3.3 34 1.1 86 86 N 14 22 29.80 1009 10 16 0.01 0.25
3:53 am 03:53 Cloudy with Light Rain 38 3.3 34 1.1 86 86 N 15 24 29.73 1007 10 16 0.01 0.25
4:53 am 04:53 Cloudy 38 3.3 34 1.1 86 86 N 18 30 29.71 1006 10 16 0.00 0.00
5:12 am 05:12 Cloudy 38 3.3 34 1.1 86 86 NNW 13 20 29.76 1008 10 16 0.00 0.00
5:21 am 05:21 Cloudy 38 3.3 34 1.1 86 86 N 12 19 29.76 1008 10 16 0.00 0.00
5:31 am 05:31 Cloudy 38 3.3 34 1.1 86 86 N 13 20 29.76 1008 10 16 0.00 0.00
5:42 am 05:42 Cloudy 38 3.3 34 1.1 86 86 N 15 24 29.76 1008 10 16 0.00 0.00
5:53 am 05:53 Cloudy 38 3.3 34 1.1 86 86 N 14 22 29.72 1006 10 16 0.00 0.00
6:39 am 06:39 Cloudy with Light Rain 39 3.9 34 1.1 82 82 N 16 26 29.75 1007 10 16 0.01 0.25
6:53 am 06:53 Cloudy with Light Rain 38 3.3 34 1.1 86 86 N 14 22 29.72 1006 10 16 0.01 0.25
7:53 am 07:53 Cloudy with Light Rain 39 3.9 34 1.1 82 82 N 18 30 29.72 1007 10 16 0.00 0.00
8:53 am 08:53 Cloudy with Light Rain 39 3.9 35 1.7 86 86 N 16 26 29.72 1007 10 16 0.02 0.51
9:53 am 09:53 Cloudy with Light Rain 39 3.9 35 1.7 86 86 N 16 26 29.72 1006 10 16 0.00 0.00
10:53 am 10:53 Cloudy with Light Rain 40 4.4 35 1.7 83 83 N 20 31 29.72 1006 10 16 0.02 0.51
11:29 am 11:29 Cloudy with Light Rain 40 4.4 35 1.7 83 83 N 24 39 29.73 1007 10 16 0.01 0.25
11:53 am 11:53 Cloudy with Light Rain 41 5 35 1.7 79 79 N 24 39 29.71 1006 10 16 0.01 0.25
12:53 pm 12:53 Cloudy with Light Rain 42 5.6 36 2.2 79 79 N 23 37 29.71 1006 10 16 0.00 0.00
1:53 pm 13:53 Cloudy with Light Rain 42 5.6 35 1.7 76 76 N 30 48 29.71 1006 10 16 0.00 0.00
2:53 pm 14:53 Cloudy with Light Rain 41 5 36 2.2 82 82 N 29 46 29.72 1006 10 16 0.02 0.51
3:53 pm 15:53 Cloudy with Light Rain 42 5.6 36 2.2 79 79 N 30 48 29.73 1007 10 16 0.01 0.25
4:53 pm 16:53 Cloudy with Light Rain 41 5 35 1.7 79 79 N 23 37 29.75 1008 10 16 0.02 0.51
5:53 pm 17:53 Cloudy with Light Rain 41 5 35 1.7 79 79 N 22 35 29.77 1008 10 16 0.00 0.00
6:45 pm 18:45 Cloudy with Light Rain 40 4.4 34 1.1 79 79 N 30 48 29.80 1009 10 16 0.01 0.25
6:53 pm 18:53 Cloudy with Light Rain 40 4.4 34 1.1 79 79 N 30 48 29.79 1009 10 16 0.01 0.25
7:31 pm 19:31 Cloudy 40 4.4 34 1.1 79 79 N 22 35 29.83 1010 10 16 0.00 0.00
7:53 pm 19:53 Cloudy 40 4.4 34 1.1 79 79 N 21 33 29.81 1010 10 16 0.00 0.00
8:53 pm 20:53 Cloudy 40 4.4 33 0.6 77 77 N 22 35 29.84 1011 10 16 0.00 0.00
9:53 pm 21:53 Cloudy 40 4.4 34 1.1 79 79 NNW 17 28 29.87 1012 10 16 0.00 0.00
10:53 pm 22:53 Cloudy 40 4.4 32 0 73 73 N 18 30 29.89 1012 10 16 0.00 0.00
11:53 pm 23:53 Cloudy 40 4.4 32 0 73 73 NW 10 17 29.89 1012 10 16 0.00 0.00

Powered by AerisWeather